DW8508 Weather Reports


Display with metric or nautical units.
time (UTC)temp
F
wind
direction
speed
MPH
gust
MPH
rain 1hr
in
rain 24hr
in
rain mn
in
humidity
%
barometer
mb
20260506211556 -90 50 0.0 0.0 0.00 0.00 0.00 1020.3
20260506210052 -90 44 0.0 0.0 0.00 0.00 0.00 1020.1
20260506204547 -90 44 0.0 0.0 0.00 0.00 0.00 1020.1
20260506203049 -90 44 0.0 0.0 0.00 0.00 0.00 1020.1
20260506201550 -90 44 0.0 0.0 0.00 0.00 0.00 1020.0
20260506200033 -90 44 0.0 0.0 0.00 0.00 0.00 1020.1
20260506194534 -90 44 0.0 0.0 0.00 0.00 0.00 1019.9
20260506193015 -90 44 0.0 0.0 0.00 0.00 0.00 1019.9
20260506191510 -90 44 0.0 0.0 0.00 0.00 0.00 1019.8
20260506190005 -90 44 0.0 0.0 0.00 0.00 0.00 1019.7
20260506184603 -90 44 0.0 0.0 0.00 0.00 0.00 1019.6
20260506183056 -90 44 0.0 0.0 0.00 0.00 0.00 1019.5
20260506181552 -90 44 0.0 0.0 0.00 0.00 0.00 1019.4
20260506180047 -90 44 0.0 0.0 0.00 0.00 0.00 1019.3
20260506174543 -90 44 0.0 0.0 0.00 0.00 0.00 1019.1
20260506173026 -90 44 0.0 0.0 0.00 0.00 0.00 1019.0
20260506171522 -90 44 0.0 0.0 0.00 0.00 0.00 1019.1
20260506170017 -90 44 0.0 0.0 0.00 0.00 0.00 1019.1
20260506164513 -90 44 0.0 0.0 0.00 0.00 0.00 1018.9
20260506163012 -90 42 0.0 0.0 0.00 0.00 0.00 1018.8
20260506161505 -90 55 0.0 0.0 0.00 0.00 0.00 1018.8
20260506160103 -90 360 0.0 0.0 0.00 0.00 0.00 1018.8
20260506154602 -90 360 0.0 0.0 0.00 0.00 0.00 1018.8
20260506153042 -90 29 0.0 0.0 0.00 0.00 0.00 1018.9
20260506151534 -90 65 0.0 0.0 0.00 0.00 0.00 1018.9
20260506150032 -90 42 0.0 0.0 0.00 0.00 0.00 1018.9
20260506144526 -90 360 0.0 0.0 0.00 0.00 0.00 1018.9
20260506143022 -90 5 0.0 0.0 0.00 0.00 0.00 1018.8
20260506141517 -90 66 0.0 0.0 0.00 0.00 0.00 1018.9
20260506140013 -90 33 0.0 0.0 0.00 0.00 0.00 1018.9
20260506134508 -90 57 0.0 0.0 0.00 0.00 0.00 1018.9
20260506130051 -90 25 0.0 0.0 0.00 0.00 0.00 1018.9
20260506124542 -90 319 0.0 0.0 0.00 0.00 0.00 1019.0
20260506123037 -90 32 0.0 0.0 0.00 0.00 0.00 1019.1
20260506121532 -90 24 0.0 0.0 0.00 0.00 0.00 1019.2
20260506120032 -90 30 0.0 0.0 0.00 0.00 0.00 1019.3
20260506114524 -90 319 0.0 0.0 0.00 0.00 0.00 1019.4
20260506113019 -90 360 0.0 0.0 0.00 0.00 0.00 1019.5
20260506111518 -90 59 0.0 0.0 0.00 0.00 0.00 1019.5
20260506110059 -90 54 0.0 0.0 0.00 0.00 0.00 1019.4
20260506104554 -90 80 0.0 0.0 0.00 0.00 0.00 1019.4
20260506103050 -90 27 0.0 0.0 0.00 0.00 0.00 1019.4
20260506101545 -90 330 0.0 0.0 0.00 0.00 0.00 1019.5
20260506100043 -90 327 0.0 0.0 0.00 0.00 0.00 1019.5
20260506094544 -90 347 0.0 0.0 0.00 0.00 0.00 1019.5
20260506093052 -90 360 0.0 0.0 0.00 0.00 0.00 1019.4
20260506091528 -90 328 0.0 0.0 0.00 0.00 0.00 1019.4
20260506090006 -88 339 0.0 0.0 0.00 0.00 0.00 1019.5
20260506084505 -82 360 0.0 0.0 0.00 0.00 0.00 1019.3
20260506083045 -72 333 0.0 0.0 0.00 0.00 0.00 1019.4
20260506081540 -66 317 0.0 0.0 0.00 0.00 0.00 1019.3
20260506073027 -48 35 0.0 0.0 0.00 0.00 0.00 1019.3
20260506071524 -48 360 0.0 0.0 0.00 0.00 0.00 1019.3
20260506061603 -48 291 0.0 0.0 0.00 0.00 0.00 1019.2
20260506044528 -49 21 0.0 0.0 0.00 0.00 0.00 1019.2
20260506043012 -50 21 0.0 0.0 0.00 0.00 0.00 1019.2
20260506041508 -52 21 0.0 0.0 0.00 0.00 0.00 1019.2
20260506040004 -56 21 0.0 0.0 0.00 0.00 0.00 1019.1
20260506034608 -61 21 0.0 0.0 0.00 0.00 0.00 1019.0
20260506033057 0 0.0 0.0 0.00 0.00 0.00 1018.9
20260506031551 0 0.0 0.0 0.00 0.00 0.00 1018.7
20260506030046 0 0.0 0.0 0.00 0.00 0.00 1018.6
20260506024541 0 0.0 0.0 0.00 0.00 0.00 1018.4
20260506023048 0 0.0 0.0 0.00 0.00 0.00 1018.4
20260506021520 0 0.0 0.0 0.00 0.00 0.00 1018.3
20260506020029 0 0.0 0.0 0.00 0.00 0.00 1018.3
20260506014510 0 0.0 0.0 0.00 0.00 0.00 1018.3
20260506013006 0 0.0 0.0 0.00 0.00 0.00 1018.3
20260506011502 0 0.0 0.0 0.00 0.00 0.00 1018.2
20260506010058 0 0.0 0.0 0.00 0.00 0.00 1018.2
20260506004554 0 0.0 0.0 0.00 0.00 0.00 1018.2
20260506003049 0 0.0 0.0 0.00 0.00 0.00 1018.1
20260506001527 0 0.0 0.0 0.00 0.00 0.00 1018.1
20260506000041 0 0.0 0.0 0.00 0.00 0.00 1018.1
20260505234509 0 0.0 0.0 0.00 0.00 0.00 1018.1
20260505233003 0 0.0 0.0 0.00 0.00 0.00 1018.2
20260505231600 0 0.0 0.0 0.00 0.00 0.00 1018.2
20260505230053 0 0.0 0.0 0.00 0.00 0.00 1018.3
20260505224551 -75 355 0.0 0.0 0.00 0.00 0.00 1018.3
20260505223043 -75 355 0.0 0.0 0.00 0.00 0.00 1018.4
20260505221547 -75 355 0.0 0.0 0.00 0.00 0.00 1018.6
20260505220033 -75 355 0.0 0.0 0.00 0.00 0.00 1018.6
20260505214518 -75 355 0.0 0.0 0.00 0.00 0.00 1018.6
20260505213016 -77 355 0.0 0.0 0.00 0.00 0.00 1018.6